Tracking 19847 objects as of 16-Sep-2019
HD Live streaming from Space Station
objects crossing your sky now

FENGYUN 1C DEB

Track FENGYUN 1C DEB now!
10-day predictions


NORAD ID: 33656
Int'l Code: 1999-025DER
Perigee: 768.3 km
Apogee: 906.4 km
Inclination: 98.7 °
Period: 101.5 minutes
Semi major axis: 7208 km
RCS: 0.0162 m2 (small)
Launch date: May 10, 1999
Source: People's Republic of China (PRC)
Launch site: Taiyaun Space Center, China (TSC)

Note: This is SATELLITE DEBRIS
aabbcc
Your satellite tracking list
Your tracking list is empty




NASA's NSSDC Master Catalog

Two Line Element Set (TLE):
1 33656U 99025DER 19258.30271012  .00000115  00000-0  72821-4 0  9990
2 33656  98.6534 288.5324 0095731 144.3327 216.4296 14.18564687621640
Source of the keplerian elements: AFSPC